www.pogodaiklimat.ru

Погода и климат >> Архив погоды >> Греция >> Kalamata


ПОГОДА в Kalamata

  • Прогноз погоды в Kalamata
  • Монитор погоды в Kalamata
  • Климат города

АРХИВ ПОГОДЫ в Kalamata

Время (UTC), дата Ветер
(напр.,м/с)
 
Видим.   Явления Облачность Т
(С)
Тd
(С)
f
(%)
Тe
(С)
Тes
(С)
Комфортность P
(гПа)
Po
(гПа)
Тmin
(С)
Tmax
(С)
R
(мм)
R24
(мм)
S
(см)
00 9.12 В 3
{6}
н/о в посл. час осадки н/о +13.7 +12.3 91 +13 +13 1013.5 1013.0 3
03 9.12
{4}
н/о в посл. час осадки н/о +11.5 +10.3 92 1012.4 1011.8
06 9.12 штиль 0 8000 м дымка {дождь} 5/4 750 м
[Cu Sc Ac trans]
+10.2 +9.0 92 +9 +9 1013.3 1013.0 +10.0 5
09 9.12 С 2
{3}
10 км в посл. час дождь 5/1 750 м
[Cu hum Ac trans]
+14.8 +11.7 82 +14 +17 1014.3 1014.0
12 9.12 С 6
{9}
10 км {дождь} 4/1 600 м
[Cu hum Ac trans]
+17.2 +8.5 57 +16 +18 1013.0 1013.0 0.5
15 9.12 штиль 0
{7}
10 км 4/4 600 м
[Cu med, cong]
+14.6 +4.7 51 +15 +15 1013.4 1013.0
18 9.12 штиль 0
{3}
10 км 4/4 600 м
[Sc]
+8.2 +5.6 84 +7 +7 1014.2 1014.0 +17.8 0.5
21 9.12
{3}
н/о н/о +7.2 +5.7 90 1014.0 1013.5
00 10.12
{3}
н/о в посл. час осадки н/о +9.5 +7.8 89 1012.4 1011.8 0.3
03 10.12
{3}
н/о в посл. час осадки н/о +9.7 +8.3 91 1009.3 1008.8
06 10.12 штиль 0 6000 м слабый дождь 9/6 240 м
[Frnb Ac und]
+15.0 +11.4 79 +15 +15 1006.7 1007.0 +6.3 1
09 10.12 С 4
{9}
7000 м слабый дождь 9/8 600 м
[Cu Sc Ac As]
+14.0 +9.4 74 +13 +13 1007.1 1007.0
12 10.12 С 4
{10}
10 км {дождь} 8/4 900 м
[Cu med, cong Ac und Cs]
+15.2 +7.8 61 +14 +15 1007.3 1007.0 5
15 10.12 СВ 2
{7}
10 км слабый дождь {гроза} 6/5 750 м
[Cu Sc Ac und Cs]
+13.4 +8.8 74 +13 +13 1008.3 1008.0
18 10.12 С 2
{4}
10 км в посл. час дождь {гроза} 6/5 750 м
[Cu Sc Ac cuf]
+9.6 +6.7 82 +8 +8 1010.0 1010.0 +15.2 6
21 10.12
{3}
н/о осадки н/о +8.3 +6.1 86 1011.4 1010.8
00 11.12
{5}
н/о осадки н/о +8.7 +6.7 87 1011.6 1011.0 1
03 11.12 С 3
{7}
н/о осадки н/о +8.6 +6.9 89 +6 +6 1010.7 1010.1
06 11.12 штиль 0 10 км в посл. час дождь 5/4 750 м
[Cu med, cong Ac und]
+7.2 +5.2 87 +6 +6 1011.2 1011.0 +7.1 2
09 11.12 штиль 0
{4}
10 км 8/4 900 м
[Cu med, cong Ac und]
+12.8 +6.1 64 +13 +14 1012.6 1013.0
12 11.12 С 2
{8}
8000 м дымка {дождь} 9/6 600 м
[Cu Sc Ac As]
+10.6 +8.1 85 +9 +10 1011.8 1012.0 5
15 11.12 С 4
{6}
8000 м в посл. час дождь 8/5 300 м
[St Ac As]
+10.0 +7.4 84 +7 +7 1012.7 1013.0
18 11.12 З 1
{5}
10 км 5/3 750 м
[Cu med, cong Ac cuf]
+6.8 +5.0 88 +7 +7 1014.8 1015.0 +13.2 6
21 11.12
{3}
н/о осадки н/о +6.6 +4.9 89 1016.6 1016.0
00 12.12
{9}
н/о в посл. час осадки н/о +5.2 +3.5 89 1017.3 1016.7 0.6
03 12.12 СЗ 2
{3}
н/о н/о +3.1 +1.9 92 +1 +1 1017.9 1017.3
06 12.12 С 2 4000 м слабый дождь 8/6 540 м
[Cu Sc Ac As]
+5.6 +3.7 88 +3 +3 1019.8 1020.0 +2.5 1
09 12.12 штиль 0
{5}
10 км 5/1 750 м
[Cu med, cong Ac trans]
+10.0 +5.3 73 +9 +13 1020.8 1021.0
12 12.12 С 3
{6}
10 км 3/1 600 м
[Cu med, cong Ac lent]
+14.2 -1.6 34 +14 +16 1019.6 1020.0
15 12.12 С 1
{6}
10 км 4/3 600 м
[Cu med, cong Ac lent Ci fib]
+10.8 +1.2 51 +11 +11 1020.5 1021.0
18 12.12 0
{3}
10 км 4/1 600 м
[Cu med, cong Ac cuf]
+4.2 +1.9 85 1021.6 1022.0 +14.2
21 12.12
{4}
н/о н/о +5.2 +2.7 84 1021.7 1021.1
00 13.12 СЗ 2
{4}
н/о {осадки} н/о +6.1 +3.3 82 +4 +4 1020.7 1020.1 0.0
03 13.12
{3}
н/о в посл. час осадки н/о +7.1 +4.3 82 1019.2 1018.6
06 13.12 С 3 4000 м слабый дождь 9/6 600 м
[Cu Sc Ac As]
+7.4 +5.7 89 +5 +5 1017.2 1017.0 +3.9 2
09 13.12 С 2
{7}
3000 м слабый дождь 10/6 240 м
[St Ac As]
+8.4 +7.4 93 +6 +7 1016.8 1017.0
12 13.12 С 2
{10}
4000 м слабый дождь {гроза} 8/6 600 м
[Cu Sc Ac cuf]
+11.4 +9.9 90 +10 +11 1016.0 1016.0 20
15 13.12 штиль 0
{3}
4000 м в посл. час дождь 9/5 750 м
[Cu Sc Ac und]
+12.2 +9.9 86 +12 +12 1015.7 1016.0
18 13.12 штиль 0
{5}
7000 м слабый дождь 9/6 750 м
[Cu Sc Ac As]
+10.8 +9.7 93 +10 +10 1016.7 1017.0 +13.1 25
21 13.12 СЗ 1
{3}
н/о осадки н/о +10.2 +9.2 94 +10 +10 1017.4 1016.8
00 14.12 З 1
{3}
н/о осадки н/о +10.2 +9.1 93 +10 +10 1017.1 1016.5 1
03 14.12
{3}
н/о {осадки} н/о +10.1 +9.1 94 1016.7 1016.2
06 14.12 штиль 0
{2}
2000 м дымка 5/4 600 м
[Cu med, cong Ac lent]
+8.8 +7.7 93 +8 +8 1017.2 1017.0 +8.7 1
09 14.12 штиль 0
{3}
8000 м дымка 6/4 750 м
[Cu med, cong Ac und]
+16.2 +13.3 83 +16 +19 1017.8 1018.0
12 14.12 Ю 5
{8}
10 км 5/5 750 м
[Cu Sc]
+19.4 +13.2 67 +21 +22 комфорт 1016.3 1016.0
15 14.12 ЮВ 3
{8}
10 км 6/4 750 м
[Cu Sc Ci sp]
+16.6 +10.8 69 +17 +17 1016.3 1016.0
18 14.12 ЮВ 4
{7}
10 км 5/3 750 м
[Cu med, cong Ac und]
+15.4 +8.8 65 +15 +15 1016.5 1017.0 +19.4
21 14.12 ЮВ 4
{8}
н/о н/о +16.5 +9.3 62 +16 +16 1016.1 1015.6
00 15.12 ЮВ 5
{8}
н/о н/о +17.1 +9.3 60 +16 +16 1015.6 1015.0
03 15.12 ЮВ 2
{9}
н/о н/о +16.5 +10.2 66 +17 +17 1014.6 1014.1
06 15.12 ЮВ 4 10 км {гроза} 8/5 600 м
[Cu Sc Ac und Cc]
+16.0 +8.6 61 +15 +15 1014.3 1014.0 +15.3
09 15.12 Ю 8
{12}
10 км 6/4 600 м
[Cu Sc Ac und]
+19.4 +10.2 55 +20 +20 1014.2 1014.0
12 15.12 Ю 8
{14}
10 км 6/4 750 м
[Cu med, cong Ac cuf Ci ing]
+18.6 +11.3 62 +18 +19 1012.3 1012.0
15 15.12 Ю 7
{12}
10 км 9/6 600 м
[Cu Sc Ac cuf]
+18.0 +11.5 66 +17 +17 1011.0 1011.0
18 15.12 В 3
{15}
8000 м гроза, ливневой дождь 9/6 540 м
[Cb cap Ac As]
+12.0 +10.2 89 +11 +11 1012.4 1012.0 +19.4 11
21 15.12
{7}
н/о осадки н/о +11.1 +9.8 92 1011.7 1011.1

 

Местоположение метеостанции Kalamata (Греция): широта 37.07 долгота 22.02 высота над уровнем моря 8 м.

В архиве по умолчанию представлена погода в Kalamata за последнюю неделю. Архивные данные за месяц целиком и за предыдущие месяцы, начиная с января 2011 года, Вы можете получить, выбрав интересующий диапазон дат из раскрывающегося списка и нажав кнопку "Ввод!".


*Определитесь, кто Вы:
робот инопланетянин человек

Внимание! Время в таблицах - всемирное. Для получения местного времени необходимо прибавить поправку, которая в Kalamata равна 2 ч.

Смотрите также архив погоды в соседних городах и на ближайших метеорологических станциях:

Погода в Methoni (Греция) (39 км)
Погода в Tripolis (Греция) (61 км)
Погода в Andravida (Греция) (115 км)
Погода в Kythira (Греция) (125 км)
Погода в Elefsis (Греция) (175 км)
Погода в Athens (Греция) (177 км)
Погода в Kefalonia (Греция) (178 км)
Погода в El Venizelos (Греция) (192 км)
Погода в Tatoi (Греция) (193 км)
Погода в Aktion (Греция) (204 км)

Пояснения к столбцам:

Ветер - указаны скорость ветра в м/с - средняя за 10 мин, порывы в срок и между сроками (в фигурных скобках) и направление, откуда дует ветер: С - северный, СВ - северо-восточный, В - восточный, ЮВ - юго-восточный, Ю - южный, ЮЗ - юго-западный, З - западный, СЗ - северо-западный.
Видимость - горизонтальная дальность видимости в метрах или километрах. При видимости от 1 до 10 км при отсутствии осадков обычно наблюдается дымка, при ухудшении видимости до 1 км и менее - туман. В сухую погоду видимость может ухудшаться дымом, пылью или мглою.
Явления - указаны атмосферные явления, наблюдавшиеся в срок или в последний час перед сроком; фигурными скобками обозначены явления, наблюдавшиеся между сроками (за 1-3 часа до срока); квадратными скобками обозначены град или гололедные отложения с указанием их диаметра в мм.
Облачность - указаны через наклонную черту общая и нижняя облачность в баллах и высота нижней границы облаков в метрах; квадратными скобками обозначены формы облаков: Ci - перистые, Cs - перисто-слоистые, Cc - перисто-кучевые, Ac - высококучевые, As - высокослоистые, Sc - слоисто-кучевые, Ns - слоисто-дождевые, Cu - кучевые, Cb - кучево-дождевые. Подробнее классификацию облаков см. в Атласе облаков (PDF).
T - Температура воздуха - температура, измеренная на высоте 2 м над землей.
Td - Температура точки росы - температура, при понижении до которой содержащийся в воздухе водяной пар достигнет насыщения.
f - Относительная влажность воздуха - влажноcть воздуха, измеренная на высоте 2 м над землей.
Te - Эффективная температура - температура, которую ощущает одетый по сезону человек в тени. Характеристика душности погоды. При расчете учитывается влияние влажности воздуха и скорости ветра на теплоощущения человека.
Tes - Эффективная температура на солнце - температура, которую ощущает человек, с поправкой на солнечный нагрев. Характеристика знойности погоды. Зависит от высоты солнца над горизонтом, облачности и скорости ветра. Ночью, в пасмурную погоду, а также при ветре 12 м/с и более поправка равна нулю.
P - Атмосферное давление - приведенное к уровню моря атмосферное давление.
Po - Атмосферное давление - измеренное на уровне метеостанции атмосферное давление.
Tmin - Минимальная температура - минимум температуры воздуха на высоте 2 м над землей.
Tmax - Максимальная температура - максимум температуры воздуха на высоте 2 м над землей.
R - Количество осадков - Количество выпавших осадков за период времени, мм. При наведении курсора мыши на число - период времени, за который выпало указанное количество осадков.
R24 - Количество осадков - Количество выпавших осадков за 24 часа, мм.
S - Снежный покров - Высота снежного покрова, см. При наведении курсора мыши на число - состояние снежного покрова и степень покрытия местности в баллах.